Regional Weather Roundup
Issued by NWS Mobile, AL

Home | Current Version | Previous Version | Text Only | Print | Product List | Glossary On
Versions: 1 2 3 4 5 6 7 8 9 10 11 12 13 14 15 16 17 18 19 20 21 22 23 24 25 26 27 28 29 30 31 32 33 34 35 36 37 38 39 40 41 42 43 44 45 46 47 48 49 50
000
ASUS44 KMOB 080812
RWRMOB
REGIONAL WEATHER ROUNDUP
NATIONAL WEATHER SERVICE MOBILE AL
200 AM CST MON FEB 08 2016

NOTE: "FAIR" INDICATES FEW OR NO CLOUDS BELOW 12,000 FEET WITH NO
      SIGNIFICANT WEATHER AND/OR OBSTRUCTIONS TO VISIBILITY.

  * THESE STATIONS ARE PART OF THE UNIVERSITY OF SOUTH ALABAMA
    MESONET AND ARE NOT UNDER NWS OR FAA QUALITY CONTROL.

ALZ061>064-080900-
COASTAL ALABAMA

CITY           SKY/WX    TMP DP  RH WIND       PRES   REMARKS
MOBILE REG APT CLEAR     42  35  76 CALM      30.08F
BROOKLEY FIELD CLEAR     46  36  68 W8        30.09F
USA CAMPUS*    NOT AVBL
DOG RIVER*     NOT AVBL


CITY           SKY/WX    TMP DP  RH WIND       PRES   REMARKS
MOUNT VERNON*  NOT AVBL
SARALAND*      NOT AVBL
BAY MINETTE*   NOT AVBL
LOXLEY*        NOT AVBL
ROBERTSDALE*   NOT AVBL
FAIRHOPE*      NOT AVBL
ELBERTA*       NOT AVBL
FOLEY*         NOT AVBL
GRAND BAY*     NOT AVBL
DAUPHIN ISLND* NOT AVBL
BON SCOUR NWR* NOT AVBL
GULF SHORES    CLEAR     49  38  66 W14G28    30.08F

$$

ALZ051>060-080900-
INTERIOR SOUTHWEST AND SOUTH CENTRAL ALABAMA

CITY           SKY/WX    TMP DP  RH WIND       PRES   REMARKS
GREENVILLE     NOT AVBL
EVERGREEN      CLEAR     40  30  67 SW3       30.04F
CASTLEBERRY*   NOT AVBL
ATMORE*        NOT AVBL
DIXIE*         NOT AVBL
ANDALUSIA/OPP  CLEAR     44  30  57 W7        30.03
ANDALUSIA*     NOT AVBL
FLORALA APT    PTCLDY    41  32  70 VRB3      30.05F
FLORALA*       NOT AVBL

$$

FLZ001>006-080900-
WESTERN FLORIDA PANHANDLE

CITY           SKY/WX    TMP DP  RH WIND       PRES   REMARKS
PENSACOLA      CLEAR     47  39  74 W9        30.07F
NAS PENSACOLA  CLEAR     49  39  68 W6        30.07
MILTON         NOT AVBL
WHTNG S FIELD  CLEAR     45  38  76 VRB3      30.06F


CITY           SKY/WX    TMP DP  RH WIND       PRES   REMARKS
WALNUT HILL*   NOT AVBL
JAY*           NOT AVBL
DUKE FIELD     CLEAR     42  35  77 SW3       30.05F
CRESTVIEW      CLEAR     43  35  73 W6        30.07F
VALPARAISO     CLEAR     40  35  81 NW7       30.05F
DESTIN         CLEAR     51  40  65 VRB5      30.06F

$$

MSZ076-079-080900-
INTERIOR SOUTHEAST MISSISSIPPI

CITY           SKY/WX    TMP DP  RH WIND       PRES   REMARKS
LEAKESVILLE*   NOT AVBL
AGRICOLA*      NOT AVBL

$$

MARINE OBSERVATIONS

STATION/POSITION TIME  TEMP    WIND        PRES    WAVE
                       AIR SEA DIR/SP/G            HT/PER
                 (UTC) (F)     (DEG/KT/KT) (MB)    (FT/S)
PASCAGOULA       0700   50     280/ 10/ 14 1019.5F
PETIT BOIS ISLND 0700   52     280/ 17/ 21 1020.3F
KATRINA CUT      0700   53     280/ 22       N/A
E DAUPHIN ISLAND 0700   53     260/  9/ 12 1019.3F
MIDDLE BAY LIGHT 0700          270/ 16     1018.3F
USCG MOBILE BAY  0700   47 55  270/  7/ 10 1019.7F
STATE DOCKS      0700   48 53              1019.0F
MEAHER PARK      0700   49     250/ 10     1019.6F
WEEKS BAY        0600   52                   N/A
FORT MORGAN      0700   54     290/ 25/ 28 1018.4F
12 S ORANGE BCH  0750   56 60  280/ 21/ 27 1017.9F   5/ 5
PENSACOLA BAY    0700   53 56  280/  6/  9 1018.9F

$$

SELECTED LOCATIONS ACROSS THE REGION

CITY           SKY/WX    TMP DP  RH WIND       PRES   REMARKS
NEW ORLEANS    CLEAR     46  34  62 SW6       30.13F
GULFPORT       CLEAR     41  35  79 W5        30.10F
PASCAGOULA AP  CLEAR     45  35  68 W5        30.09F
PASCAGOULA*    NOT AVBL
HATTIESBURG    PTCLDY    46  32  58 W7        30.08F
LAUREL         PTCLDY    41  27  56 SW6       30.06F
MERIDIAN       CLEAR     35  29  78 S8        30.01F WCI  29
JACKSON        CLEAR     57  31  37 SW8       30.02F
MONTGOMERY     PTCLDY    41  25  53 SW7       30.01F
TROY           PTCLDY    37  28  70 S5        30.02F
KINSTON*       NOT AVBL
GENEVA*        NOT AVBL
ASHFORD*       NOT AVBL
DOTHAN         CLEAR     39  28  64 SW5       30.06F
PANAMA CITY    CLEAR     39  35  86 CALM      30.05F

$$




USA.gov is the U.S. government's official web portal to all federal, state and local government web resources and services.